Flight Track Log - Related Links

Times and Time Zones

All times are in EDT time to prevent confusion due to time zone crossing. See the KAP927 flight status page for this flight to view local times or setup timezone preferences in your user account.

Time Position Orientation Groundspeed Altitude Reporting Facility
EDT Latitude Longitude Course Direction KTS MPH feet Rate Location/Type
Thu 02:33:56 PM 42.7819 -73.8150 341° North 110 127 1,300  Level Boston Center
Thu 02:34:57 PM 42.8128 -73.8297 341° North 111 128 1,900 492 Climbing Boston Center
Thu 02:35:58 PM 42.8397 -73.8417 342° North 109 125 2,300 563 Climbing Boston Center
Thu 02:37:05 PM 42.8772 -73.8539 347° North 114 131 3,100 677 Climbing Boston Center
Thu 02:38:11 PM 42.9083 -73.8689 341° North 115 132 3,800 545 Climbing Boston Center
Thu 02:39:06 PM 42.9372 -73.8836 340° North 118 136 4,200 362 Climbing Boston Center
Thu 02:40:07 PM 42.9725 -73.8958 346° North 129 148 4,500 472 Climbing Boston Center
Thu 02:41:13 PM 43.0119 -73.9081 347° North 130 150 5,200 595 Climbing Boston Center
Thu 02:42:08 PM 43.0389 -73.9258 334° Northwest 120 138 5,700 569 Climbing Boston Center
Thu 02:43:09 PM 43.0656 -73.9492 327° Northwest 115 132 6,300 397 Climbing Boston Center
Thu 02:44:09 PM 43.0967 -73.9697 334° Northwest 121 139 6,500 99 Climbing Boston Center
Thu 02:45:10 PM 43.1317 -73.9933 334° Northwest 141 162 6,500 -295 Level Boston Center
Thu 02:46:11 PM 43.1731 -74.0200 335° Northwest 164 189 5,900 -452 Descending Boston Center
Thu 02:46:43 PM 43.1894 -74.0319 332° Northwest 170 196 5,800 -261 Descending Boston Center
Thu 02:47:43 PM 43.2350 -74.0617 335° Northwest 170 196 5,500 -300 Descending Boston Center
Thu 02:48:43 PM 43.2700 -74.0883 331° Northwest 164 189 5,200 450 Descending Boston Center
Thu 02:49:43 PM 43.3031 -74.1147 330° Northwest 143 165 6,400 850 Climbing Boston Center
Thu 02:50:43 PM 43.3278 -74.1383 325° Northwest 120 138 6,900 650 Climbing Boston Center
Thu 02:51:43 PM 43.3522 -74.1619 325° Northwest 106 122 7,700 700 Climbing Boston Center
Thu 02:52:43 PM 43.3750 -74.1825 327° Northwest 106 122 8,300 650 Climbing Boston Center
Thu 02:53:43 PM 43.4036 -74.2119 323° Northwest 106 122 9,000 600 Climbing Boston Center
Thu 02:54:43 PM 43.4303 -74.2356 327° Northwest 111 128 9,500 400 Climbing Boston Center
Thu 02:55:43 PM 43.4550 -74.2592 325° Northwest 111 128 9,800 400 Climbing Boston Center
Thu 02:56:43 PM 43.4942 -74.2947 327° Northwest 128 147 10,300 350 Climbing Boston Center
Thu 02:57:43 PM 43.5289 -74.3272 326° Northwest 138 159 10,500 150 Climbing Boston Center
Thu 02:58:43 PM 43.5639 -74.3628 324° Northwest 150 173 10,600 50 Climbing Boston Center
Thu 02:59:43 PM 43.6050 -74.3983 328° Northwest 155 178 10,600  Level Boston Center
Thu 03:01:07 PM 43.6522 -74.4403 327° Northwest 160 184 10,600  Level Boston Center
Thu 03:02:07 PM 43.6950 -74.4847 323° Northwest 165 190 10,600  Level Boston Center
Thu 03:03:07 PM 43.7258 -74.5086 331° Northwest 165 190 10,600 50 Level Boston Center
Thu 03:04:07 PM 43.7689 -74.5533 323° Northwest 165 190 10,700 45 Climbing Boston Center
Thu 03:05:19 PM 43.8058 -74.5892 325° Northwest 165 190 10,700  Level Boston Center
Thu 03:06:19 PM 43.8486 -74.6308 325° Northwest 160 184 10,700 -50 Level Boston Center
Thu 03:07:19 PM 43.8856 -74.6669 325° Northwest 160 184 10,600 -100 Descending Boston Center
Thu 03:08:19 PM 43.9222 -74.7028 325° Northwest 160 184 10,500 -150 Descending Boston Center
Thu 03:09:19 PM 43.9592 -74.7389 325° Northwest 160 184 10,300 -350 Descending Boston Center
Thu 03:10:19 PM 44.0000 -74.7750 328° Northwest 166 191 9,800 -500 Descending Boston Center
Thu 03:11:19 PM 44.0431 -74.8142 327° Northwest 172 198 9,300 -500 Descending Boston Center
Thu 03:12:19 PM 44.0839 -74.8564 323° Northwest 172 198 8,800 -450 Descending Boston Center
Thu 03:13:19 PM 44.1247 -74.8928 327° Northwest 172 198 8,400 -500 Descending Boston Center
Thu 03:14:19 PM 44.1636 -74.9319 324° Northwest 172 198 7,800 -500 Descending Boston Center
Thu 03:15:19 PM 44.2044 -74.9628 332° Northwest 172 198 7,400 -400 Descending Boston Center
Thu 03:16:19 PM 44.2431 -75.0050 322° Northwest 172 198 7,000 -400 Descending Boston Center
Thu 03:17:19 PM 44.2819 -75.0383 328° Northwest 172 198 6,600 -500 Descending Boston Center
Thu 03:18:19 PM 44.3228 -75.0781 325° Northwest 172 198 6,000 -650 Descending Boston Center
Thu 03:19:19 PM 44.3614 -75.1144 326° Northwest 173 199 5,300 -600 Descending Boston Center
Thu 03:20:19 PM 44.4003 -75.1542 324° Northwest 173 199 4,800 -500 Descending Boston Center
Thu 03:21:19 PM 44.4392 -75.1850 330° Northwest 173 199 4,300 -550 Descending Boston Center
Thu 03:22:19 PM 44.4778 -75.2244 324° Northwest 173 199 3,700 -650 Descending Boston Center
Thu 03:23:19 PM 44.5206 -75.2617 328° Northwest 173 199 3,000 -700 Descending Boston Center

Login

Don't have an account? Register now (free) for customized features, flight alerts, and more!